Location: Cantarrana
(10.3575°N, 66.9340°W)
Time: 09:18:43
(UTC+00:00)

Cosmos 1536 - Visible Passes

Search period start: 26 June 2022 00:00
Search period end: 06 July 2022 00:00
Orbit: 539 x 554 km, 82.5° (Epoch: 25 June)

Date Brightness Start Highest point End Pass type
(mag) Time Alt. Az. Time Alt. Az. Time Alt. Az.
26 Jun 3.9 09:19:37 10° SSE 09:23:28 46° E 09:27:18 10° NNE visible
27 Jun 3.7 09:14:10 10° S 09:18:02 51° E 09:21:55 10° NNE visible
28 Jun 3.5 09:08:42 10° S 09:12:37 56° E 09:16:32 10° NNE visible
29 Jun 3.3 09:03:14 10° S 09:07:11 61° E 09:11:09 10° NNE visible
30 Jun 3.1 08:57:47 10° S 09:01:46 67° E 09:05:45 10° N visible
01 Jul 3.0 08:52:59 14° S 08:56:20 74° E 09:00:20 10° N visible
02 Jul 2.8 08:48:27 23° S 08:50:54 81° E 08:54:55 10° N visible
03 Jul 2.7 08:43:52 35° S 08:45:28 88° E 08:49:30 10° N visible
04 Jul 2.7 08:39:14 56° SSW 08:40:03 85° W 08:44:05 10° N visible
05 Jul 2.6 08:34:34 78° W 08:34:37 78° W 08:38:38 10° N visible
